User: anonymous   Login
Location: Follega
(52.8850°N, 5.7362°E)
Time: 03:05:11
(UTC+00:00)
Language:

Cosmos 1867 - Orbit

View from above orbital plane
View from above orbital plane
View from above satellite
View from above satellite

Ground track
Ground track

The orbit data is extracted from the following two-line orbital elements,

1 18187U 87060A   20221.79924892 -.00000080 +00000-0 +75771-5 0  9994
2 18187 065.0091 254.2321 0013943 275.0934 084.8558 14.31113560728131
Epoch (UTC): 08 August 2020 19:10:55
Eccentricity: 0.0013943
inclination: 65.0091°
perigee height: 778 km
apogee height: 798 km
right ascension of ascending node: 254.2321°
argument of perigee: 275.0934°
revolutions per day: 14.31113560
mean anomaly at epoch: 84.8558°
orbit number at epoch: 72813

The dashed part of the orbit path shows where the satellite is in the earth's shadow,  

DLR